METEOR 2-5 DEB, 29292

Orbit data source: Space-Track

METEOR 2-5 DEB, 29292 is space debris in LEO originally from a launch on Wed, 31 Oct 1979 UTC launched from the Plesetsk Missile And Space Complex (PKMTR). Debris objects in space refer to the collection of defunct objects orbiting the Earth. Examples of debris include non-operational satellites, rocket bodies, and fragments generated from explosions, collisions, or faulty payload assembly.

Loading next visibility...
Identifier
29292, 1979-095R
Orbit
LEO
Country
Flag of CISCIS
Related business
Manufacturer
Unknown
Mission
Spacecraft
Bus & Motor
Unknown
Mass
Unknown
Launch date (UTC)
1979-10-31 (47 years ago)
Launch vehicle
Unknown
Launch site
Plesetsk Missile And Space Complex (PKMTR)
Object type
Payload
Rocket body
Debris
Shape & HBR
Unknown shape, 0.1 m
Radar Cross Section
Small (<0.1 m²)

Expand to show TLE details & history
Last TLE update: 1 week ago

TLE from 1 week ago
0 METEOR 2-5 DEB
1 29292U 79095R   26116.76660821  .00002896  00000-0  77989-3 0  9994
2 29292  81.1812 121.0507 0003726 272.8467  87.2298 14.47804292109105
Epoch: 2026-04-26T18:23Z
TLE epoch observation values (Epoch: 2026-04-26T18:23:54.949Z)
Latitude
-0.00001°
Longitude
-9.69417°
Altitude
735.651 km
Speed
7.487 km/s
True Right ascension
08h 04m 12s
True Declination
0° 00' 00"
Sunlit
Object was in daylight at epoch
Visualization orbit readout
Latitude
Unknown
Longitude
Unknown
Altitude
Unknown
Speed
Unknown
Apparent Right ascension
Unknown
Apparent Declination
Unknown
Sunlit
N/A
Visualization observer readout
Local Sidereal Time
09:36:01
Azimuth
Unknown
Elevation
Unknown
Doppler factor
Unknown
Orbital elements
Apogee altitude
732.604 km
Perigee altitude
727.307 km
Semi-major axis
7,108.093 km
Eccentricity
0.00037
Inclination
81.1812°
RAAN
121.0507°
Arg. of periapsis
272.8467°
True anomaly
87.27245°
Mean anomaly
87.2298°
Eccentric anomaly
87.25112°
Mean motion
3.62171 °/min
Orbital period
99.4 mins
BSTAR
0.00077989
Loading maneuver chart data...
Computing Atmospheric mass density...

Documentation

Showing up to 5 results
|